Weather History for Logansport, IN

Change the Weather History Date:

Tuesday, January 7, 2014

  Actual Average Record
Temperature  
Mean Temperature -2 °F -  
Max Temperature 10 °F 34 °F 33 °F (2013)
Min Temperature -14 °F 26 °F -14 °F (2014)
Degree Days  
Heating Degree Days 67    
Moisture  
Dew Point -11 °F    
Average Humidity 70    
Maximum Humidity 77    
Minimum Humidity 65    
Precipitation  
Precipitation 0.00 in - - ()
Sea Level Pressure  
Sea Level Pressure 30.32 in    
Wind  
Wind Speed 13 mph (SW)    
Max Wind Speed 20 mph    
Max Gust Speed 25 mph    
Visibility 10 miles    
Events      
Averages and records for this station are not official NWS values.
T = Trace of Precipitation, MM = Missing Value Source: NWS Daily Summary

Daily Weather History Graph

Daily Weather History Graph

Search for Another Location

Airport:

Trip Planner

Search our weather history database for the weather conditions in past years. The results will help you decide how hot, cold, wet, or windy it might be!

Date:

Astronomy

Jan. 07, 2014 Rise Set
Actual Time 8:09 AM EST 5:34 PM EST
Civil Twilight 7:38 AM EST 6:04 PM EST
Nautical Twilight 7:04 AM EST 6:39 PM EST
Astronomical Twilight 6:31 AM EST 7:12 PM EST
Moon 11:55 AM EST (1/7) 12:08 AM EST (1/7)
Length of Visible Light 10h 26m
Length of Day
9h 24m
Waxing Crescent, 45% of the Moon is Illuminated
Jan 7
Waxing Crescent
Jan 7
First Quarter
Jan 15
Full
Jan 24
Last Quarter
Jan 30
New

Hourly Weather History & Observations

Time (EST) Temp. Windchill Dew Point Humidity Pressure Visibility Wind Dir Wind Speed Gust Speed Precip Events Conditions
12:15 AM -9.4 °F -32.1 °F -18.4 °F 65% 30.29 in 10.0 mi WSW 16.1 mph - N/A   Mostly Cloudy
12:35 AM -9.4 °F -32.8 °F -18.4 °F 65% 30.29 in 10.0 mi WSW 17.3 mph 21.9 mph N/A   Scattered Clouds
12:55 AM -9.4 °F -32.8 °F -16.6 °F 71% 30.29 in 10.0 mi WSW 17.3 mph 25.3 mph N/A   Mostly Cloudy
1:15 AM -9.4 °F -32.1 °F -18.4 °F 65% 30.29 in 10.0 mi WSW 16.1 mph - N/A   Scattered Clouds
1:35 AM -9.4 °F -32.1 °F -18.4 °F 65% 30.29 in 10.0 mi WSW 16.1 mph - N/A   Scattered Clouds
1:55 AM -9.4 °F -32.8 °F -16.6 °F 71% 30.29 in 7.0 mi WSW 17.3 mph 23.0 mph N/A   Overcast
2:15 AM -9.4 °F -34.1 °F -16.6 °F 71% 30.29 in 10.0 mi WSW 19.6 mph 23.0 mph N/A   Overcast
2:35 AM -9.4 °F -31.4 °F -16.6 °F 71% 30.29 in 10.0 mi WSW 15.0 mph - N/A   Scattered Clouds
2:55 AM -9.4 °F -31.4 °F -18.4 °F 65% 30.29 in 10.0 mi WSW 15.0 mph 19.6 mph N/A   Clear
3:15 AM -13.0 °F -32.4 °F -20.2 °F 70% 30.29 in 10.0 mi SW 10.4 mph - N/A   Clear
3:35 AM -13.0 °F -33.4 °F -18.4 °F 77% 30.30 in 10.0 mi SW 11.5 mph - N/A   Clear
3:55 AM -13.0 °F -32.4 °F -18.4 °F 77% 30.30 in 10.0 mi SW 10.4 mph - N/A   Mostly Cloudy
4:15 AM -13.0 °F -33.4 °F -18.4 °F 77% 30.30 in 10.0 mi SW 11.5 mph - N/A   Overcast
4:35 AM -13.0 °F -32.4 °F -20.2 °F 70% 30.31 in 10.0 mi SW 10.4 mph - N/A   Scattered Clouds
4:55 AM -13.0 °F -31.3 °F -20.2 °F 70% 30.31 in 10.0 mi SW 9.2 mph - N/A   Scattered Clouds
5:15 AM -14.8 °F -33.5 °F -20.2 °F 77% 30.31 in 10.0 mi SW 9.2 mph - N/A   Clear
5:35 AM -14.8 °F -33.5 °F -22.0 °F 70% 30.31 in 10.0 mi SW 9.2 mph - N/A   Clear
5:55 AM -14.8 °F -33.5 °F -22.0 °F 70% 30.31 in 10.0 mi SW 9.2 mph - N/A   Clear
6:15 AM -13.0 °F -33.4 °F -20.2 °F 70% 30.31 in 10.0 mi SW 11.5 mph - N/A   Clear
6:35 AM -14.8 °F -35.6 °F -22.0 °F 70% 30.31 in 10.0 mi SW 11.5 mph - N/A   Clear
6:55 AM -14.8 °F -35.6 °F -20.2 °F 77% 30.32 in 10.0 mi SW 11.5 mph - N/A   Clear
7:15 AM -14.8 °F -33.5 °F -22.0 °F 70% 30.32 in 10.0 mi SW 9.2 mph - N/A   Clear
7:35 AM -14.8 °F -34.6 °F -20.2 °F 77% 30.32 in 10.0 mi SW 10.4 mph - N/A   Clear
7:55 AM -14.8 °F -34.6 °F -20.2 °F 77% 30.32 in 10.0 mi SW 10.4 mph - N/A   Clear
8:15 AM -14.8 °F -34.6 °F -20.2 °F 77% 30.33 in 10.0 mi SW 10.4 mph - N/A   Clear
8:35 AM -13.0 °F -32.4 °F -20.2 °F 70% 30.35 in 10.0 mi SW 10.4 mph - N/A   Clear
8:55 AM -13.0 °F -33.4 °F -18.4 °F 77% 30.36 in 10.0 mi SW 11.5 mph - N/A   Clear
9:15 AM -13.0 °F -34.3 °F -18.4 °F 77% 30.36 in 10.0 mi SW 12.7 mph - N/A   Clear
9:35 AM -9.4 °F -27.9 °F -18.4 °F 65% 30.36 in 10.0 mi SW 10.4 mph - N/A   Clear
9:55 AM -9.4 °F -27.9 °F -16.6 °F 71% 30.36 in 10.0 mi SW 10.4 mph - N/A   Clear
10:15 AM -7.6 °F -26.6 °F -16.6 °F 65% 30.38 in 10.0 mi SW 11.5 mph - N/A   Clear
10:35 AM -7.6 °F -25.7 °F -14.8 °F 71% 30.38 in 10.0 mi SW 10.4 mph - N/A   Clear
10:55 AM -7.6 °F -26.6 °F -14.8 °F 71% 30.37 in 10.0 mi SW 11.5 mph - N/A   Clear
11:15 AM -7.6 °F -25.7 °F -14.8 °F 71% 30.36 in 10.0 mi SW 10.4 mph - N/A   Clear
11:35 AM -5.8 °F -24.4 °F -14.8 °F 65% 30.37 in 10.0 mi SW 11.5 mph - N/A   Clear
11:55 AM -5.8 °F -26.8 °F -13.0 °F 71% 30.36 in 10.0 mi SW 15.0 mph - N/A   Clear
12:15 PM -4.0 °F -22.1 °F -13.0 °F 65% 30.35 in 10.0 mi SW 11.5 mph - N/A   Clear
12:35 PM -4.0 °F -22.1 °F -11.2 °F 71% 30.35 in 10.0 mi SW 11.5 mph - N/A   Mostly Cloudy
12:55 PM -2.2 °F -19.9 °F -9.4 °F 71% 30.34 in 10.0 mi SW 11.5 mph - N/A   Mostly Cloudy
1:15 PM -0.4 °F -17.6 °F -9.4 °F 66% 30.33 in 10.0 mi SW 11.5 mph - N/A   Mostly Cloudy
1:35 PM -0.4 °F -18.4 °F -9.4 °F 66% 30.33 in 10.0 mi SW 12.7 mph - N/A   Overcast
1:55 PM -0.4 °F -19.2 °F -7.6 °F 72% 30.33 in 10.0 mi SW 13.8 mph - N/A   Overcast
2:15 PM 1.4 °F -16.9 °F -7.6 °F 66% 30.33 in 10.0 mi SW 13.8 mph - N/A   Mostly Cloudy
2:35 PM 1.4 °F -14.5 °F -7.6 °F 66% 30.32 in 10.0 mi SW 10.4 mph - N/A   Scattered Clouds
2:55 PM 1.4 °F -14.5 °F -7.6 °F 66% 30.32 in 10.0 mi SW 10.4 mph - N/A   Mostly Cloudy
3:15 PM 3.2 °F -11.3 °F -5.8 °F 66% 30.32 in 10.0 mi SW 9.2 mph - N/A   Mostly Cloudy
3:35 PM 3.2 °F -11.3 °F -5.8 °F 66% 30.31 in 10.0 mi SSW 9.2 mph - N/A   Scattered Clouds
3:55 PM 3.2 °F -11.3 °F -5.8 °F 66% 30.31 in 10.0 mi SSW 9.2 mph - N/A   Mostly Cloudy
4:15 PM 5.0 °F -9.1 °F -4.0 °F 66% 30.31 in 10.0 mi SSW 9.2 mph - N/A   Overcast
4:35 PM 5.0 °F -9.1 °F -4.0 °F 66% 30.31 in 10.0 mi SSW 9.2 mph - N/A   Overcast
4:55 PM 5.0 °F -10.0 °F -4.0 °F 66% 30.31 in 10.0 mi SSW 10.4 mph - N/A   Overcast
5:15 PM 5.0 °F -9.1 °F -4.0 °F 66% 30.31 in 10.0 mi SSW 9.2 mph - N/A   Overcast
5:35 PM 5.0 °F -9.1 °F -4.0 °F 66% 30.31 in 10.0 mi SSW 9.2 mph - N/A   Overcast
5:55 PM 5.0 °F -9.1 °F -2.2 °F 72% 30.31 in 10.0 mi SSW 9.2 mph - N/A   Overcast
6:15 PM 6.8 °F -7.8 °F -0.4 °F 72% 30.31 in 10.0 mi SSW 10.4 mph - N/A   Overcast
6:35 PM 6.8 °F -6.9 °F -0.4 °F 72% 30.31 in 10.0 mi SSW 9.2 mph - N/A   Overcast
6:55 PM 6.8 °F -7.8 °F -0.4 °F 72% 30.31 in 10.0 mi SSW 10.4 mph - N/A   Overcast
7:15 PM 6.8 °F -7.8 °F -0.4 °F 72% 30.31 in 10.0 mi SSW 10.4 mph - N/A   Overcast
7:35 PM 8.6 °F -5.5 °F -0.4 °F 67% 30.32 in 10.0 mi SSW 10.4 mph - N/A   Overcast
7:55 PM 8.6 °F -5.5 °F 1.4 °F 73% 30.33 in 10.0 mi South 10.4 mph - N/A   Overcast
8:15 PM 8.6 °F -6.3 °F 1.4 °F 73% 30.33 in 10.0 mi SSW 11.5 mph - N/A   Overcast
8:35 PM 8.6 °F -6.3 °F 1.4 °F 73% 30.33 in 10.0 mi SSW 11.5 mph - N/A   Overcast
8:55 PM 8.6 °F -6.3 °F 1.4 °F 73% 30.33 in 10.0 mi SSW 11.5 mph - N/A   Overcast
9:15 PM 8.6 °F -6.3 °F 1.4 °F 73% 30.33 in 10.0 mi SSW 11.5 mph - N/A   Overcast
9:35 PM 8.6 °F -5.5 °F 1.4 °F 73% 30.32 in 10.0 mi South 10.4 mph - N/A   Overcast
9:55 PM 8.6 °F -5.5 °F 1.4 °F 73% 30.32 in 10.0 mi South 10.4 mph - N/A   Overcast
10:15 PM 8.6 °F -5.5 °F 1.4 °F 73% 30.33 in 10.0 mi South 10.4 mph - N/A   Overcast
10:35 PM 8.6 °F -3.7 °F 1.4 °F 73% 30.33 in 10.0 mi South 8.1 mph - N/A   Overcast
10:55 PM 10.4 °F -0.4 °F 3.2 °F 73% 30.33 in 10.0 mi South 6.9 mph - N/A   Overcast
11:15 PM 10.4 °F 0.8 °F 3.2 °F 73% 30.33 in 10.0 mi South 5.8 mph - N/A   Overcast
11:35 PM 10.4 °F -0.4 °F 3.2 °F 73% 30.32 in 10.0 mi South 6.9 mph - N/A   Overcast
11:55 PM 10.4 °F 0.8 °F 1.4 °F 67% 30.31 in 10.0 mi South 5.8 mph - N/A   Overcast